{"data":{"norad_id":64862,"intl_designator":"2025-152W","name":"STARLINK-34684","alt_names":[],"object_type":"PAYLOAD","status":"ACTIVE","operator":null,"country":"US","launch_date":"2025-07-19","launch_site_code":"AFWTR","launch_vehicle":null,"mission":null,"orbit_class":"UNKNOWN","rcs_meters":null,"size_class":null,"mass_kg":null,"dimensions":null,"purposes":["comms"],"wikipedia_slug":null,"has_3d_model":false,"image_url":null,"decayed_at":null,"tle_current":{"epoch":"2026-05-25T03:24:16.106112Z","epoch_age_seconds":69630,"freshness":"FRESH","line1":"1 64862U 25152W   26145.14185308  .00001666  00000+0  11951-3 0  9997","line2":"2 64862  97.4476   0.5284 0001571  98.4992 261.6413 15.05656957 46922","mean_motion":15.05656957,"eccentricity":0.0001571,"inclination_deg":97.4476,"raan_deg":0.5284,"arg_perigee_deg":98.4992,"mean_anomaly_deg":261.6413,"bstar":0.00011951,"rev_number":4692,"period_min":95.639315005005,"perigee_km":548.40148404099,"apogee_km":550.57814438602,"semimajor_km":6927.6268142135,"source":"CELESTRAK","updated_at":"2026-05-25T13:38:20.617047Z"}}}